Location: Unspecified
(0.0000°N, 0.0000°E)
Time: 07:09:18
(UTC+00:00)

Courier 1B Rocket - All Passes

Search period start: 20 October 2021 00:00
Search period end: 30 October 2021 00:00
Orbit: 920 x 1202 km, 28.2° (Epoch: 19 October)

Date Brightness Start Highest point End Pass type
(mag) Time Alt. Az. Time Alt. Az. Time Alt. Az.
20 Oct - 01:22:14 10° WNW 01:29:13 66° SSW 01:36:45 10° SE visible
20 Oct - 03:17:57 10° WSW 03:23:26 22° SSW 03:29:06 10° SSE visible
20 Oct - 09:09:21 10° S 09:11:21 11° SSE 09:13:20 10° SSE daylight
20 Oct - 10:59:43 10° SSW 11:06:10 32° SSE 11:12:13 10° E daylight
20 Oct - 12:52:49 10° WSW 12:59:57 78° NNW 13:06:34 10° NE daylight
20 Oct - 14:48:39 10° WNW 14:53:34 21° NNW 14:58:18 10° NNE daylight
20 Oct - 22:29:10 10° NNW 22:34:20 24° NNE 22:39:46 10° E night (unlit)
21 Oct - 00:21:09 10° WNW 00:28:00 85° NNE 00:35:24 10° ESE night (unlit)
21 Oct - 02:15:44 10° W 02:21:54 30° SSW 02:28:25 10° SSE visible
21 Oct - 04:15:08 10° SSW 04:16:50 11° SSW 04:18:33 10° S visible
21 Oct - 09:59:00 10° SSW 10:04:42 23° SSE 10:10:09 10° ESE daylight
21 Oct - 11:51:28 10° SW 11:58:48 71° SSE 12:05:34 10° ENE daylight
21 Oct - 13:46:15 10° W 13:52:23 33° NNW 13:58:08 10° NNE daylight
21 Oct - 21:29:21 10° N 21:33:03 16° NNE 21:36:50 10° ENE night (unlit)
21 Oct - 23:20:21 10° NW 23:26:50 56° NNE 23:33:48 10° ESE night (unlit)
22 Oct - 01:13:59 10° W 01:20:31 43° SSW 01:27:31 10° SE visible
22 Oct - 03:11:08 10° SW 03:15:02 15° SSW 03:19:02 10° SSE visible
22 Oct - 08:58:32 10° SSW 09:03:05 16° SSE 09:07:30 10° ESE daylight
22 Oct - 10:50:19 10° SW 10:57:32 48° SSE 11:04:15 10° ENE daylight
22 Oct - 12:44:15 10° WSW 12:51:13 51° NNW 12:57:41 10° NE daylight
22 Oct - 14:41:41 10° NW 14:45:05 14° NNW 14:48:24 10° N daylight
22 Oct - 22:19:50 10° NW 22:25:42 36° NNE 22:31:55 10° E night (unlit)
23 Oct - 00:12:36 10° WNW 00:19:15 63° SSW 00:26:26 10° SE night (unlit)
23 Oct - 02:08:20 10° WSW 02:13:23 20° SSW 02:18:41 10° SSE visible
23 Oct - 07:58:36 10° S 08:01:18 12° SSE 08:03:59 10° SE daylight
23 Oct - 09:49:21 10° SW 09:56:09 34° SSE 10:02:35 10° E daylight
23 Oct - 11:42:34 10° WSW 11:50:02 77° NNW 11:56:56 10° NE daylight
23 Oct - 13:38:31 10° WNW 13:43:45 22° NNW 13:48:44 10° NNE daylight
23 Oct - 21:19:36 10° NNW 21:24:32 23° NNE 21:29:41 10° E night (unlit)
23 Oct - 23:11:33 10° WNW 23:18:06 87° NNE 23:25:10 10° ESE night (unlit)
24 Oct - 01:06:08 10° W 01:11:54 28° SSW 01:18:03 10° SSE night (unlit)
24 Oct - 08:48:37 10° SSW 08:54:39 24° SSE 09:00:28 10° ESE daylight
24 Oct - 10:41:09 10° SW 10:48:47 73° SSE 10:55:54 10° ENE daylight
24 Oct - 12:36:02 10° W 12:42:29 33° NNW 12:48:32 10° NNE daylight
24 Oct - 20:19:47 10° N 20:23:18 15° NNE 20:26:51 10° ENE visible
24 Oct - 22:10:46 10° NW 22:17:01 56° NNE 22:23:39 10° ESE night (unlit)
25 Oct - 00:04:24 10° W 00:10:35 40° SSW 00:17:12 10° SE night (unlit)
25 Oct - 02:01:43 10° SW 02:05:02 14° SSW 02:08:27 10° S visible
25 Oct - 07:48:09 10° SSW 07:52:59 17° SSE 07:57:46 10° ESE daylight
25 Oct - 09:39:58 10° SW 09:47:28 50° SSE 09:54:32 10° ENE daylight
25 Oct - 11:34:00 10° WSW 11:41:15 51° NNW 11:48:02 10° NE daylight
25 Oct - 13:31:27 10° WNW 13:35:14 15° NNW 13:38:54 10° N daylight
25 Oct - 21:10:14 10° NW 21:15:57 36° NNE 21:21:53 10° E night (unlit)
25 Oct - 23:03:03 10° WNW 23:09:23 61° SSW 23:16:13 10° SE night (unlit)
26 Oct - 00:58:52 10° WSW 01:03:27 19° SSW 01:08:15 10° SSE night (unlit)
26 Oct - 06:48:13 10° S 06:51:13 12° SSE 06:54:13 10° SE daylight
26 Oct - 08:39:01 10° SW 08:46:02 35° SSE 08:52:48 10° E daylight
26 Oct - 10:32:16 10° WSW 10:39:59 76° NNW 10:47:14 10° NE daylight
26 Oct - 12:28:17 10° WNW 12:33:50 23° NNW 12:39:08 10° NNE daylight
26 Oct - 20:09:57 10° NNW 20:14:49 23° NNE 20:19:46 10° E visible
26 Oct - 22:01:59 10° WNW 22:08:19 89° NE 22:15:02 10° ESE night (unlit)
26 Oct - 23:56:39 10° W 00:02:01 26° SSW 00:07:43 10° SSE night (unlit)
27 Oct - 07:38:19 10° SSW 07:44:30 25° SSE 07:50:36 10° ESE daylight
27 Oct - 09:30:51 10° SW 09:38:41 75° SSE 09:46:07 10° ENE daylight
27 Oct - 11:25:46 10° W 11:32:30 34° NNW 11:38:51 10° NNE daylight
27 Oct - 13:26:31 10° NNW 13:26:53 10° NNW 13:27:15 10° NNW daylight
27 Oct - 19:10:04 10° N 19:13:35 15° NNE 19:17:06 10° ENE visible
27 Oct - 21:01:09 10° NW 21:07:17 57° NNE 21:13:39 10° ESE visible
27 Oct - 22:54:54 10° W 23:00:46 38° SSW 23:07:00 10° SE night (unlit)
28 Oct - 00:52:34 10° SW 00:55:08 12° SSW 00:57:45 10° S night (unlit)
28 Oct - 06:37:55 10° SSW 06:42:52 18° SSE 06:47:49 10° ESE daylight
28 Oct - 08:29:42 10° SW 08:37:18 52° SSE 08:44:40 10° ENE daylight
28 Oct - 10:23:42 10° WSW 10:31:10 51° NNW 10:38:16 10° NE daylight
28 Oct - 12:21:08 10° WNW 12:25:19 16° NNW 12:29:21 10° N daylight
28 Oct - 20:00:34 10° NW 20:06:14 36° NNE 20:12:00 10° E visible
28 Oct - 21:53:29 10° WNW 21:59:38 58° SSW 22:06:07 10° SE night (unlit)
28 Oct - 23:49:30 10° WSW 23:53:35 17° SSW 23:57:51 10° SSE night (unlit)
29 Oct - 05:38:06 10° S 05:41:07 12° SSE 05:44:09 10° SE daylight
29 Oct - 07:28:47 10° SW 07:35:51 36° SSE 07:42:51 10° E daylight
29 Oct - 09:22:00 10° WSW 09:29:51 75° NNW 09:37:23 10° NE daylight
29 Oct - 11:18:00 10° WNW 11:23:49 23° NNW 11:29:26 10° NNE daylight
29 Oct - 19:00:13 10° NNW 19:05:08 24° NNE 19:10:02 10° E visible
29 Oct - 20:52:22 10° WNW 20:58:37 89° SSW 21:05:04 10° ESE visible
29 Oct - 22:47:12 10° W 22:52:14 24° SSW 22:57:30 10° SSE night (unlit)
